McKean County Weather on FaceBook
Temperatures and Conditions from around the state of pennsylvania

NOAA NWS Hourly Roundups by Site

Regional Weather Roundup for State College, PA

To Select Another Site Choose from List

Select Site:  

000
ASUS41 KCTP 240403
RWRCTP

REGIONAL WEATHER ROUNDUP
NATIONAL WEATHER SERVICE STATE COLLEGE PA
1100 PM EST SAT FEB 23 2019

Note: "fair" indicates few or no clouds below 12,000 feet with no
significant weather and/or obstructions to visibility.

* = STATION THAT DOES NOT REPORT PRECIPITATION /E.G. RAIN...SNOW...ETC/
    THUNDER OR FOG.

PAZ002>004-007>009-013>016-020>023-029>032-240500-
WESTERN PENNSYLVANIA

CITY           SKY/WX    TMP DP  RH WIND       PRES   REMARKS
ERIE           CLOUDY    41  36  82 SE17G30   29.79F
MEADVILLE      LGT RAIN  37  34  89 MISG      29.82F
FRANKLIN*      NOT AVBL
NEW CASTLE     CLOUDY    41  36  82 SE7       29.84F
BEAVER COUNTY  NOT AVBL
BUTLER*        FAIR      38  35  89 SE14      29.84F
PITTSBURGH INT CLOUDY    41  37  86 SE13      29.83F
PITTSBURGH     CLOUDY    40  36  86 SE10      29.85F
INDIANA*       CLOUDY    39  36  87 SE9       29.95F
LATROBE        FAIR      41  36  81 CALM      29.91S
WASHINGTON CO* FAIR      42  37  82 SE6       29.87F
$$

PAZ004>006-010>012-017>019-024>028-033>037-041-042-045-046-049>053-240500-
CENTRAL PENNSYLVANIA

CITY           SKY/WX    TMP DP  RH WIND       PRES   REMARKS
BRADFORD       CLOUDY    32  31  96 SE13      29.90F
DUBOIS         CLOUDY    32  30  92 SE15G25   29.90F FOG
CLEARFIELD     CLOUDY    33  31  92 VRB6      30.00F
JOHNSTOWN      FOG       31  28  89 SE14      29.94F VSB 1/4
ALTOONA        CLOUDY    33  30  88 S9        30.03F FOG
STATE COLLEGE  CLOUDY    32  31  95 CALM      30.06F
WILLIAMSPORT   CLOUDY    34  31  88 E9G20     30.11F FOG
SELINSGROVE    CLOUDY    33  32  96 CALM      30.14F FOG
FT INDIANTOWN  CLOUDY   N/A N/A N/A NE5       30.15F FOG
CAPITAL CITY   CLOUDY    35  34  96 E5        30.15F FOG
HARRISBURG     LGT RAIN  35  33  92 E5        30.14F FOG
YORK           CLOUDY    35  34  96 CALM      30.13F FOG
$$

PAZ038>040-043-044-047-048-054-055-060>062-067>071-240500-
EASTERN PENNSYLVANIA

CITY           SKY/WX    TMP DP  RH WIND       PRES   REMARKS
SCRANTON       CLOUDY    33  31  92 VRB3      30.11F
MOUNT POCONO   FRZ RAIN  28  28 100 SE12      30.10F VSB 3/4
ALLENTOWN      MIX PCPN  36  32  85 NE5       30.18F FOG
QUAKERTOWN*    CLOUDY    34  34 100 CALM      30.15F FOG
READING        CLOUDY    35  35 100 E6        30.14F FOG
LANCASTER      CLOUDY    37  34  89 E9        30.13F FOG
COATESVILLE      N/A     34  34 100 E12       30.13F FOG
POTTSTOWN      LGT RAIN  34  34 100 E5        30.16F FOG
BLUE BELL      CLOUDY    34  34 100 E5        30.17F
DOYLESTOWN     LGT RAIN  35  33  92 CALM      30.16F FOG
WILLOW GROVE   NOT AVBL
NORTH PHILA    CLOUDY    39  35  86 NE7       30.19F FOG
PHILADELPHIA   MIX PCPN  37  35  92 E8        30.16F FOG
$$


 

View Past Reports for State College, PA.

Products Courtesy of NOAA-NWS
NWS Information Parsing Script by Ken True at Saratoga Weather - Script by SE Lincoln Weather.